VST1040 KIAH-KSRQ

Flight info

Callsign VST1040
Flight time 1h 35m
Altitude 37000
Route GUMBY3 LLA LEV Y280 CHRGE RAYZZ3
Aircraft A319/M-SDE3FGHIRWY/LB1

Departure

Time 2026-04-20 00:57
Airport George Bush Intercontinental Airport (KIAH)

Arrival

Time 2026-04-20 02:33
Airport Sarasota Bradenton International Airport (KSRQ)
Time Latitude Longitude Altitude Speed Heading
2026-04-20 00:35 29.98882 -95.34988 107 ft 0 kts 90°
2026-04-20 00:50 29.98882 -95.34999 107 ft 4 kts 110°
2026-04-20 00:50 29.98898 -95.35020 105 ft 4 kts 137°
2026-04-20 00:50 29.98913 -95.35038 106 ft 4 kts 114°
2026-04-20 00:50 29.98915 -95.35064 107 ft 4 kts 55°
2026-04-20 00:51 29.98896 -95.35077 106 ft 4 kts
2026-04-20 00:51 29.98883 -95.35077 106 ft 0 kts
2026-04-20 00:54 29.98885 -95.35077 106 ft 1 kts 358°
2026-04-20 00:54 29.98898 -95.35104 107 ft 6 kts 265°
2026-04-20 00:54 29.98887 -95.35160 106 ft 8 kts 257°
2026-04-20 00:55 29.98882 -95.35228 107 ft 9 kts 285°
2026-04-20 00:55 29.98915 -95.35301 107 ft 11 kts 295°
2026-04-20 00:55 29.98922 -95.35391 107 ft 12 kts 269°
2026-04-20 00:55 29.98913 -95.35492 107 ft 13 kts 251°
2026-04-20 00:56 29.98869 -95.35590 106 ft 14 kts 241°
2026-04-20 00:56 29.98819 -95.35694 107 ft 15 kts 241°
2026-04-20 00:56 29.98756 -95.35763 109 ft 12 kts 169°
2026-04-20 00:56 29.98677 -95.35717 108 ft 15 kts 151°
2026-04-20 00:57 29.98433 -95.35569 107 ft 76 kts 152°
2026-04-20 00:57 29.97765 -95.35160 109 ft 139 kts 152°
2026-04-20 00:57 29.96793 -95.34561 378 ft 163 kts 147°
2026-04-20 00:57 29.95859 -95.33856 985 ft 160 kts 126°
2026-04-20 00:58 29.95488 -95.32670 1598 ft 159 kts 99°
2026-04-20 00:58 29.95236 -95.31391 2108 ft 173 kts 102°
2026-04-20 00:58 29.94918 -95.29960 2448 ft 196 kts 103°
2026-04-20 00:58 29.94547 -95.28348 2870 ft 219 kts 103°
2026-04-20 00:59 29.94131 -95.26561 3406 ft 240 kts 104°
2026-04-20 00:59 29.93688 -95.24670 4288 ft 247 kts 104°
2026-04-20 00:59 29.93239 -95.22765 5224 ft 252 kts 105°
2026-04-20 00:59 29.92766 -95.20765 6079 ft 259 kts 105°
2026-04-20 01:00 29.92289 -95.18749 6869 ft 268 kts 105°
2026-04-20 01:00 29.91793 -95.16642 7649 ft 276 kts 105°
2026-04-20 01:00 29.91284 -95.14477 8439 ft 283 kts 105°
2026-04-20 01:00 29.90761 -95.12257 9232 ft 291 kts 104°
2026-04-20 01:01 29.90222 -95.09981 10035 ft 297 kts 105°
2026-04-20 01:01 29.89659 -95.07609 10413 ft 319 kts 105°
2026-04-20 01:01 29.89054 -95.05060 10825 ft 337 kts 104°
2026-04-20 01:01 29.88435 -95.02429 11512 ft 344 kts 104°
2026-04-20 01:02 29.87803 -94.99741 12243 ft 351 kts 105°
2026-04-20 01:02 29.87155 -94.97006 12988 ft 357 kts 105°
2026-04-20 01:02 29.86495 -94.94228 13725 ft 362 kts 105°
2026-04-20 01:02 29.85825 -94.91412 14435 ft 367 kts 105°
2026-04-20 01:03 29.85147 -94.88555 15072 ft 373 kts 104°
2026-04-20 01:03 29.84456 -94.85654 15683 ft 379 kts 104°
2026-04-20 01:03 29.83753 -94.82705 16201 ft 384 kts 104°
2026-04-20 01:03 29.83041 -94.79720 16842 ft 389 kts 104°
2026-04-20 01:04 29.82318 -94.76689 17456 ft 395 kts 104°
2026-04-20 01:04 29.81582 -94.73624 18060 ft 401 kts 103°
2026-04-20 01:04 29.80835 -94.70513 18649 ft 406 kts 103°
2026-04-20 01:04 29.80079 -94.67360 19179 ft 411 kts 103°
2026-04-20 01:05 29.79313 -94.64169 19681 ft 415 kts 104°
2026-04-20 01:05 29.78538 -94.60948 20237 ft 420 kts 104°
2026-04-20 01:05 29.77753 -94.57692 20786 ft 425 kts 104°
2026-04-20 01:05 29.76958 -94.54399 21322 ft 430 kts 104°
2026-04-20 01:06 29.76154 -94.51069 21848 ft 434 kts 105°
2026-04-20 01:06 29.75340 -94.47703 22384 ft 439 kts 105°
2026-04-20 01:06 29.74518 -94.44305 22888 ft 443 kts 105°
2026-04-20 01:06 29.73687 -94.40870 23418 ft 448 kts 106°
2026-04-20 01:07 29.72848 -94.37402 23928 ft 452 kts 106°
2026-04-20 01:07 29.72072 -94.33880 24352 ft 457 kts 100°
2026-04-20 01:07 29.71637 -94.30246 24769 ft 461 kts 97°
2026-04-20 01:07 29.71240 -94.26574 25183 ft 465 kts 97°
2026-04-20 01:08 29.70832 -94.22871 25586 ft 469 kts 97°
2026-04-20 01:08 29.70414 -94.19137 25982 ft 473 kts 98°
2026-04-20 01:08 29.69990 -94.15372 26378 ft 477 kts 97°
2026-04-20 01:08 29.69556 -94.11573 26760 ft 481 kts 98°
2026-04-20 01:09 29.69117 -94.07750 27138 ft 485 kts 98°
2026-04-20 01:09 29.68712 -94.03932 27505 ft 489 kts 94°
2026-04-20 01:09 29.68624 -94.00011 27867 ft 493 kts 90°
2026-04-20 01:09 29.68604 -93.96056 28238 ft 497 kts 90°
2026-04-20 01:10 29.68580 -93.92072 28607 ft 500 kts 90°
2026-04-20 01:10 29.68514 -93.84010 29334 ft 508 kts 91°
2026-04-20 01:10 29.68473 -93.79935 29702 ft 512 kts 91°
2026-04-20 01:11 29.68431 -93.75827 30026 ft 516 kts 91°
2026-04-20 01:11 29.68386 -93.71685 30356 ft 520 kts 91°
2026-04-20 01:11 29.68338 -93.67512 30647 ft 524 kts 91°
2026-04-20 01:11 29.68288 -93.63314 30946 ft 527 kts 91°
2026-04-20 01:12 29.68239 -93.59094 31248 ft 529 kts 91°
2026-04-20 01:12 29.68190 -93.54852 31542 ft 532 kts 91°
2026-04-20 01:12 29.68143 -93.50590 31842 ft 534 kts 91°
2026-04-20 01:12 29.68095 -93.46308 32138 ft 537 kts 91°
2026-04-20 01:13 29.68044 -93.42017 32534 ft 536 kts 91°
2026-04-20 01:13 29.67990 -93.37730 32942 ft 536 kts 91°
2026-04-20 01:13 29.67933 -93.33446 33345 ft 536 kts 91°
2026-04-20 01:13 29.67876 -93.29163 33746 ft 536 kts 91°
2026-04-20 01:14 29.67819 -93.24881 34151 ft 535 kts 91°
2026-04-20 01:14 29.67765 -93.20602 34519 ft 535 kts 91°
2026-04-20 01:14 29.67705 -93.16321 34845 ft 536 kts 91°
2026-04-20 01:14 29.67643 -93.12035 35153 ft 537 kts 91°
2026-04-20 01:15 29.67576 -93.07743 35449 ft 537 kts 91°
2026-04-20 01:15 29.67507 -93.03446 35737 ft 538 kts 91°
2026-04-20 01:15 29.67440 -92.99133 36019 ft 539 kts 91°
2026-04-20 01:15 29.67370 -92.94823 36300 ft 540 kts 91°
2026-04-20 01:16 29.67301 -92.90508 36583 ft 540 kts 91°
2026-04-20 01:16 29.67233 -92.86187 36849 ft 541 kts 91°
2026-04-20 01:16 29.67163 -92.81917 37115 ft 542 kts 91°
2026-04-20 01:16 29.67090 -92.77585 37261 ft 542 kts 91°
2026-04-20 01:17 29.66942 -92.68960 37281 ft 538 kts 91°
2026-04-20 01:17 29.66774 -92.60366 37282 ft 538 kts 91°
2026-04-20 01:18 29.66603 -92.51768 37277 ft 538 kts 91°
2026-04-20 01:18 29.66432 -92.43169 37274 ft 538 kts 91°
2026-04-20 01:19 29.65768 -92.34624 37273 ft 536 kts 104°
2026-04-20 01:19 29.64052 -92.26279 37270 ft 536 kts 105°
2026-04-20 01:20 29.62317 -92.17954 37275 ft 536 kts 105°
2026-04-20 01:20 29.60582 -92.09616 37278 ft 537 kts 105°
2026-04-20 01:21 29.58850 -92.01274 37279 ft 537 kts 105°
2026-04-20 01:21 29.57112 -91.92933 37281 ft 537 kts 105°
2026-04-20 01:22 29.55360 -91.84586 37284 ft 537 kts 105°
2026-04-20 01:22 29.53603 -91.76236 37285 ft 538 kts 105°
2026-04-20 01:23 29.51844 -91.67901 37261 ft 537 kts 106°
2026-04-20 01:23 29.50095 -91.59626 37288 ft 537 kts 106°
2026-04-20 01:24 29.48333 -91.51299 37299 ft 536 kts 106°
2026-04-20 01:24 29.46564 -91.42990 37294 ft 536 kts 106°
2026-04-20 01:25 29.44780 -91.34689 37290 ft 536 kts 106°
2026-04-20 01:25 29.43003 -91.26391 37289 ft 536 kts 106°
2026-04-20 01:26 29.41224 -91.18098 37286 ft 535 kts 106°
2026-04-20 01:26 29.39424 -91.09814 37294 ft 535 kts 106°
2026-04-20 01:27 29.37625 -91.01527 37282 ft 536 kts 106°
2026-04-20 01:27 29.35829 -90.93240 37272 ft 536 kts 106°
2026-04-20 01:28 29.34045 -90.85009 37271 ft 536 kts 106°
2026-04-20 01:28 29.32533 -90.78073 37270 ft 536 kts 106°
2026-04-20 01:29 29.30426 -90.68448 37268 ft 536 kts 106°
2026-04-20 01:29 29.28598 -90.60176 37268 ft 536 kts 107°
2026-04-20 01:30 29.27066 -90.53241 37268 ft 536 kts 106°
2026-04-20 01:30 29.25240 -90.44971 37271 ft 536 kts 107°
2026-04-20 01:31 29.23405 -90.36708 37259 ft 535 kts 106°
2026-04-20 01:31 29.21581 -90.28507 37271 ft 535 kts 106°
2026-04-20 01:32 29.19729 -90.20215 37269 ft 534 kts 107°
2026-04-20 01:32 29.17880 -90.11980 37266 ft 534 kts 107°
2026-04-20 01:33 29.16083 -90.03729 37263 ft 534 kts 105°
2026-04-20 01:33 29.14443 -89.95504 37260 ft 534 kts 104°
2026-04-20 01:34 29.12813 -89.87217 37251 ft 534 kts 104°
2026-04-20 01:34 29.11130 -89.78953 37249 ft 534 kts 105°
2026-04-20 01:35 29.09422 -89.70700 37245 ft 533 kts 105°
2026-04-20 01:35 29.07712 -89.62448 37246 ft 533 kts 105°
2026-04-20 01:36 29.06008 -89.54197 37245 ft 533 kts 105°
2026-04-20 01:36 29.04299 -89.45949 37241 ft 533 kts 105°
2026-04-20 01:37 29.02575 -89.37706 37243 ft 533 kts 105°
2026-04-20 01:37 29.00845 -89.29455 37236 ft 533 kts 105°
2026-04-20 01:38 28.99121 -89.21221 37248 ft 534 kts 105°
2026-04-20 01:38 28.97392 -89.12972 37238 ft 534 kts 105°
2026-04-20 01:39 28.95654 -89.04730 37233 ft 534 kts 105°
2026-04-20 01:39 28.93908 -88.96497 37222 ft 533 kts 105°
2026-04-20 01:40 28.92174 -88.88335 37241 ft 532 kts 105°
2026-04-20 01:40 28.90429 -88.80130 37245 ft 532 kts 105°
2026-04-20 01:41 28.88674 -88.71925 37235 ft 532 kts 105°
2026-04-20 01:41 28.86725 -88.63803 37235 ft 530 kts 109°
2026-04-20 01:42 28.84435 -88.55806 37230 ft 530 kts 111°
2026-04-20 01:42 28.82097 -88.47848 37235 ft 530 kts 111°
2026-04-20 01:43 28.79836 -88.39838 37239 ft 531 kts 110°
2026-04-20 01:43 28.77627 -88.31802 37231 ft 531 kts 109°
2026-04-20 01:44 28.75407 -88.23759 37229 ft 532 kts 110°
2026-04-20 01:44 28.73161 -88.15740 37229 ft 532 kts 110°
2026-04-20 01:45 28.70900 -88.07721 37228 ft 532 kts 110°
2026-04-20 01:45 28.68634 -87.99702 37227 ft 532 kts 110°
2026-04-20 01:46 28.66377 -87.91686 37224 ft 532 kts 110°
2026-04-20 01:46 28.64113 -87.83675 37176 ft 531 kts 110°
2026-04-20 01:47 28.61842 -87.75685 37213 ft 530 kts 110°
2026-04-20 01:47 28.59561 -87.67715 37228 ft 529 kts 111°
2026-04-20 01:48 28.57284 -87.59757 37229 ft 529 kts 110°
2026-04-20 01:48 28.55017 -87.51794 37223 ft 529 kts 110°
2026-04-20 01:49 28.52746 -87.43848 37221 ft 528 kts 110°
2026-04-20 01:49 28.50467 -87.35909 37212 ft 528 kts 111°
2026-04-20 01:50 28.48178 -87.27978 37217 ft 528 kts 111°
2026-04-20 01:50 28.45900 -87.20105 37215 ft 528 kts 111°
2026-04-20 01:51 28.43601 -87.12185 37214 ft 528 kts 111°
2026-04-20 01:51 28.41300 -87.04274 37208 ft 528 kts 111°
2026-04-20 01:52 28.39002 -86.96360 37205 ft 528 kts 111°
2026-04-20 01:52 28.36698 -86.88454 37191 ft 527 kts 111°
2026-04-20 01:53 28.34395 -86.80560 37198 ft 527 kts 111°
2026-04-20 01:53 28.32087 -86.72666 37170 ft 526 kts 111°
2026-04-20 01:54 28.29774 -86.64792 37188 ft 526 kts 111°
2026-04-20 01:54 28.27478 -86.56918 37189 ft 526 kts 111°
2026-04-20 01:55 28.25182 -86.49052 37200 ft 525 kts 111°
2026-04-20 01:55 28.22879 -86.41194 37197 ft 525 kts 111°
2026-04-20 01:56 28.20574 -86.33351 37196 ft 524 kts 111°
2026-04-20 01:56 28.18264 -86.25512 37187 ft 524 kts 111°
2026-04-20 01:57 28.15946 -86.17679 37189 ft 524 kts 111°
2026-04-20 01:57 28.13622 -86.09853 37193 ft 524 kts 111°
2026-04-20 01:58 28.11316 -86.02079 37190 ft 523 kts 111°
2026-04-20 01:58 28.09000 -85.94266 37183 ft 523 kts 111°
2026-04-20 01:59 28.06675 -85.86458 37184 ft 523 kts 112°
2026-04-20 01:59 28.04340 -85.78652 37188 ft 524 kts 112°
2026-04-20 02:00 28.02002 -85.70846 37187 ft 524 kts 112°
2026-04-20 02:00 27.99659 -85.63042 37158 ft 524 kts 112°
2026-04-20 02:01 27.97320 -85.55247 37167 ft 523 kts 112°
2026-04-20 02:01 27.94973 -85.47464 37177 ft 523 kts 112°
2026-04-20 02:02 27.92621 -85.39690 37180 ft 522 kts 112°
2026-04-20 02:02 27.90260 -85.31926 37178 ft 522 kts 112°
2026-04-20 02:03 27.88120 -85.24080 37169 ft 525 kts 103°
2026-04-20 02:03 27.86775 -85.15977 37165 ft 524 kts 102°
2026-04-20 02:04 27.85410 -85.07880 37162 ft 524 kts 102°
2026-04-20 02:04 27.84039 -84.99787 37158 ft 525 kts 102°
2026-04-20 02:05 27.83351 -84.95731 36921 ft 525 kts 102°
2026-04-20 02:05 27.82664 -84.91683 36381 ft 525 kts 103°
2026-04-20 02:05 27.81979 -84.87635 35805 ft 525 kts 102°
2026-04-20 02:05 27.81454 -84.83557 35288 ft 525 kts 95°
2026-04-20 02:06 27.81415 -84.79443 34734 ft 524 kts 86°
2026-04-20 02:06 27.81628 -84.75333 34164 ft 524 kts 86°
2026-04-20 02:06 27.81833 -84.71221 33535 ft 524 kts 86°
2026-04-20 02:06 27.82032 -84.67120 32958 ft 522 kts 86°
2026-04-20 02:07 27.82228 -84.63029 32338 ft 521 kts 86°
2026-04-20 02:07 27.82419 -84.58948 31719 ft 520 kts 86°
2026-04-20 02:07 27.82605 -84.54928 31097 ft 519 kts 86°
2026-04-20 02:07 27.82789 -84.50859 30436 ft 518 kts 85°
2026-04-20 02:08 27.82972 -84.46795 29711 ft 517 kts 85°
2026-04-20 02:08 27.83156 -84.42750 29055 ft 514 kts 85°
2026-04-20 02:08 27.83341 -84.38736 28410 ft 510 kts 85°
2026-04-20 02:08 27.83525 -84.34750 27766 ft 506 kts 86°
2026-04-20 02:09 27.83709 -84.30794 27135 ft 503 kts 86°
2026-04-20 02:09 27.83889 -84.26864 26501 ft 499 kts 86°
2026-04-20 02:09 27.84062 -84.22961 25874 ft 496 kts 86°
2026-04-20 02:09 27.84231 -84.19083 25247 ft 492 kts 86°
2026-04-20 02:10 27.84400 -84.15234 24636 ft 489 kts 86°
2026-04-20 02:10 27.84569 -84.11413 24026 ft 485 kts 86°
2026-04-20 02:10 27.84737 -84.07621 23396 ft 481 kts 86°
2026-04-20 02:10 27.84903 -84.03866 22825 ft 475 kts 86°
2026-04-20 02:11 27.85066 -84.00165 22307 ft 469 kts 86°
2026-04-20 02:11 27.85224 -83.96507 21796 ft 463 kts 86°
2026-04-20 02:11 27.85377 -83.92885 21315 ft 458 kts 86°
2026-04-20 02:11 27.85482 -83.90542 20997 ft 455 kts 86°
2026-04-20 02:12 27.85647 -83.87765 20491 ft 455 kts 85°
2026-04-20 02:12 27.85923 -83.84210 19928 ft 454 kts 84°
2026-04-20 02:12 27.86239 -83.80669 19347 ft 452 kts 83°
2026-04-20 02:13 27.86563 -83.77162 18760 ft 444 kts 83°
2026-04-20 02:13 27.86877 -83.73712 18065 ft 437 kts 83°
2026-04-20 02:13 27.87167 -83.70375 17518 ft 427 kts 84°
2026-04-20 02:13 27.87441 -83.67065 16986 ft 421 kts 84°
2026-04-20 02:14 27.87705 -83.63777 16438 ft 420 kts 84°
2026-04-20 02:14 27.87963 -83.60486 15892 ft 419 kts 84°
2026-04-20 02:14 27.88221 -83.57212 15354 ft 418 kts 84°
2026-04-20 02:14 27.88481 -83.53955 14814 ft 415 kts 84°
2026-04-20 02:15 27.88735 -83.50740 14293 ft 408 kts 84°
2026-04-20 02:15 27.88986 -83.47571 13748 ft 401 kts 84°
2026-04-20 02:15 27.89230 -83.44464 13209 ft 393 kts 84°
2026-04-20 02:15 27.89471 -83.41426 12712 ft 384 kts 84°
2026-04-20 02:16 27.89708 -83.38454 12222 ft 376 kts 84°
2026-04-20 02:16 27.89938 -83.35534 11741 ft 370 kts 84°
2026-04-20 02:16 27.90162 -83.32655 11273 ft 366 kts 84°
2026-04-20 02:16 27.90385 -83.29804 10801 ft 363 kts 84°
2026-04-20 02:17 27.90604 -83.26987 10547 ft 354 kts 84°
2026-04-20 02:17 27.90812 -83.24268 10426 ft 341 kts 83°
2026-04-20 02:17 27.91013 -83.21648 10308 ft 328 kts 84°
2026-04-20 02:17 27.91093 -83.19113 10185 ft 319 kts 94°
2026-04-20 02:18 27.90835 -83.17494 10097 ft 314 kts 105°
2026-04-20 02:18 27.89953 -83.15261 10027 ft 310 kts 123°
2026-04-20 02:18 27.88609 -83.13382 10032 ft 306 kts 134°
2026-04-20 02:18 27.87187 -83.11596 10035 ft 305 kts 133°
2026-04-20 02:19 27.85772 -83.09807 10035 ft 305 kts 133°
2026-04-20 02:19 27.84357 -83.08014 10038 ft 305 kts 133°
2026-04-20 02:19 27.82943 -83.06223 10038 ft 305 kts 133°
2026-04-20 02:19 27.81530 -83.04438 10038 ft 305 kts 133°
2026-04-20 02:20 27.80113 -83.02654 10036 ft 305 kts 133°
2026-04-20 02:20 27.78696 -83.00870 10036 ft 305 kts 133°
2026-04-20 02:20 27.77268 -82.99091 10030 ft 306 kts 134°
2026-04-20 02:20 27.75822 -82.97321 10031 ft 307 kts 134°
2026-04-20 02:21 27.72926 -82.93802 10022 ft 305 kts 134°
2026-04-20 02:21 27.71480 -82.92046 10021 ft 305 kts 134°
2026-04-20 02:21 27.70038 -82.90294 10020 ft 305 kts 134°
2026-04-20 02:22 27.68605 -82.88540 9796 ft 303 kts 134°
2026-04-20 02:22 27.67194 -82.86783 9406 ft 301 kts 133°
2026-04-20 02:22 27.65799 -82.85031 9041 ft 299 kts 133°
2026-04-20 02:22 27.64415 -82.83290 8693 ft 297 kts 133°
2026-04-20 02:23 27.63040 -82.81562 8323 ft 295 kts 132°
2026-04-20 02:23 27.61669 -82.79843 7945 ft 295 kts 133°
2026-04-20 02:23 27.60293 -82.78121 7552 ft 295 kts 132°
2026-04-20 02:23 27.58925 -82.76410 7258 ft 291 kts 132°
2026-04-20 02:24 27.57578 -82.74724 6947 ft 288 kts 131°
2026-04-20 02:24 27.56248 -82.73057 6630 ft 285 kts 131°
2026-04-20 02:24 27.54930 -82.71409 6295 ft 282 kts 131°
2026-04-20 02:24 27.53622 -82.69782 5946 ft 279 kts 132°
2026-04-20 02:25 27.52326 -82.68171 5596 ft 276 kts 132°
2026-04-20 02:25 27.51042 -82.66574 5247 ft 274 kts 132°
2026-04-20 02:25 27.49771 -82.64993 4902 ft 271 kts 132°
2026-04-20 02:25 27.48513 -82.63428 4528 ft 269 kts 132°
2026-04-20 02:26 27.47260 -82.61870 4122 ft 268 kts 132°
2026-04-20 02:26 27.46010 -82.60313 3714 ft 267 kts 131°
2026-04-20 02:26 27.44761 -82.58758 3304 ft 268 kts 131°
2026-04-20 02:26 27.43510 -82.57202 2896 ft 268 kts 130°
2026-04-20 02:27 27.42278 -82.55671 2512 ft 267 kts 130°
2026-04-20 02:27 27.41031 -82.54121 2128 ft 268 kts 130°
2026-04-20 02:27 27.39781 -82.52567 2021 ft 270 kts 130°
2026-04-20 02:27 27.38516 -82.50997 2027 ft 272 kts 130°
2026-04-20 02:28 27.37256 -82.49435 2009 ft 257 kts 130°
2026-04-20 02:28 27.36107 -82.48015 2010 ft 241 kts 130°
2026-04-20 02:28 27.35007 -82.46670 2011 ft 228 kts 130°
2026-04-20 02:28 27.33948 -82.45382 1920 ft 220 kts 130°
2026-04-20 02:29 27.32817 -82.44268 1810 ft 215 kts 153°
2026-04-20 02:29 27.31398 -82.44019 1819 ft 206 kts 191°
2026-04-20 02:29 27.30173 -82.44750 1828 ft 199 kts 231°
2026-04-20 02:29 27.29642 -82.46107 1824 ft 187 kts 271°
2026-04-20 02:30 27.29989 -82.47447 1829 ft 179 kts 307°
2026-04-20 02:30 27.30786 -82.48507 1826 ft 177 kts 318°
2026-04-20 02:30 27.31787 -82.49254 1643 ft 174 kts 348°
2026-04-20 02:30 27.32967 -82.49473 1433 ft 168 kts 346°
2026-04-20 02:31 27.34018 -82.49874 1267 ft 150 kts 335°
2026-04-20 02:31 27.34849 -82.50467 1097 ft 135 kts 326°
2026-04-20 02:31 27.35557 -82.51119 937 ft 129 kts 322°
2026-04-20 02:31 27.36215 -82.51792 783 ft 127 kts 319°
2026-04-20 02:32 27.36852 -82.52479 630 ft 127 kts 318°
2026-04-20 02:32 27.37475 -82.53170 466 ft 125 kts 317°
2026-04-20 02:32 27.38092 -82.53859 277 ft 125 kts 317°
2026-04-20 02:32 27.38704 -82.54555 108 ft 125 kts 315°
2026-04-20 02:33 27.39290 -82.55218 30 ft 106 kts 313°
2026-04-20 02:33 27.39661 -82.55645 30 ft 36 kts 315°
2026-04-20 02:33 27.39694 -82.55772 31 ft 16 kts 234°
2026-04-20 02:33 27.39600 -82.55755 31 ft 16 kts 135°
2026-04-20 02:34 27.39517 -82.55658 31 ft 18 kts 135°
2026-04-20 02:34 27.39426 -82.55554 29 ft 20 kts 134°
2026-04-20 02:34 27.39325 -82.55440 30 ft 21 kts 134°
2026-04-20 02:34 27.39222 -82.55323 30 ft 20 kts 135°
2026-04-20 02:35 27.39126 -82.55214 30 ft 16 kts 135°
2026-04-20 02:35 27.39046 -82.55119 30 ft 16 kts 135°
2026-04-20 02:35 27.38996 -82.55094 31 ft 1 kts 210°
2026-04-20 02:35 27.38983 -82.55114 31 ft 5 kts 234°
2026-04-20 02:36 27.38958 -82.55152 31 ft 7 kts 233°
2026-04-20 02:36 27.38928 -82.55206 31 ft 9 kts 238°
2026-04-20 02:36 27.38922 -82.55279 31 ft 9 kts 277°
2026-04-20 02:36 27.38925 -82.55308 31 ft 2 kts 276°
2026-04-20 02:37 27.38925 -82.55311 31 ft 0 kts 277°